Overview Statistics Trail Chart Weather Telemetry Raw packets
 

This is the latest recevied weather packets stored in our database for station/object W5CDN. If no packets are shown the sender has not sent any weather packets the latest 10 day(s).

<< 21 22 23 24 25 26 27 >>
Time Temp. Humidity Pressure Rain* Wind** Luminosity Snow
1788279836 33.33° C 57% 1016 hPa 0 mm - - -
1788279536 33.89° C 56% 1016.1 hPa 0 mm - - -
1788279236 33.89° C 56% 1016.1 hPa 0 mm - - -
1788278936 33.33° C 56% 1016.3 hPa 0 mm - - -
1788278636 32.78° C 57% 1016.2 hPa 0 mm - - -
1788278336 32.78° C 58% 1016.3 hPa 0 mm - - -
1788278036 33.89° C 57% 1016.5 hPa 0 mm - - -
1788277736 32.22° C 60% 1016.5 hPa 0 mm - - -
1788277436 32.22° C 59% 1016.5 hPa 0 mm - - -
1788277136 31.67° C 60% 1016.5 hPa 0 mm - - -
1788276836 31.67° C 62% 1016.4 hPa 0 mm - - -
1788276536 32.22° C 61% 1016.3 hPa 0 mm - - -
1788276236 30.56° C 64% 1016.6 hPa 0 mm - - -
1788275936 31.67° C 63% 1016.7 hPa 0 mm - - -
1788275636 31.67° C 62% 1016.5 hPa 0 mm - - -
1788275336 31.67° C 62% 1016.4 hPa 0 mm - - -
1788275036 31.11° C 63% 1016.7 hPa 0 mm - - -
1788274736 30.56° C 65% 1016.6 hPa 0 mm - - -
1788274436 30.56° C 64% 1016.6 hPa 0 mm - - -
1788274136 30.56° C 65% 1016.5 hPa 0 mm - - -
1788273836 31.11° C 65% 1016.5 hPa 0 mm - - -
1788273536 30° C 68% 1016.5 hPa 0 mm - - -
1788273236 29.44° C 69% 1016.8 hPa 0 mm - - -
1788272936 29.44° C 71% 1016.8 hPa 0 mm - - -
1788272636 28.89° C 71% 1016.8 hPa 0 mm - - -

* Rain latest hour (hover to see other rain measurements)
** Current wind speed in m/s (hover to see current wind gust speed)